Location: Binningen
(47.7924°N, 8.7261°E)
Time: 09:07:16
(UTC+00:00)

RESURS DK-1 - Pass Details

Date: 17 May 2021
Orbit: 553 x 564 km, 69.9° (Epoch: 15 June)

Event Time Altitude Azimuth Distance (km) Brightness Sun altitude
Rises 22:45:59 0° 320° (NW) 2,767 6.9 -22.2°
Reaches altitude 10° 22:48:30 10° 307° (NW) 1,865 5.6 -22.3°
Enters shadow 22:51:42 24° 256° (WSW) 1,194 3.9 -22.3°
